DELTA 1 DEB, 21339

Orbit data source: Space-Track

DELTA 1 DEB, 21339 is space debris in SSO originally from a launch on Thu, 12 Jun 1975 UTC launched from the Air Force Western Test Range (AFWTR). Debris objects in space refer to the collection of defunct objects orbiting the Earth. Examples of debris include non-operational satellites, rocket bodies, and fragments generated from explosions, collisions, or faulty payload assembly.

Loading next visibility...
Identifier
21339, 1975-052BH
Orbit
SSO
Country
Flag of USUS
Related business
Manufacturer
Unknown
Mission
Spacecraft
Bus & Motor
Unknown
Mass
Unknown
Launch date (UTC)
1975-06-12 (51 years ago)
Launch vehicle
Unknown
Launch site
Air Force Western Test Range (AFWTR)
Object type
Payload
Rocket body
Debris
Shape & HBR
Unknown shape, 0.1 m
Radar Cross Section
Medium (>0.1 m² and <1 m²)

Expand to show TLE details & history
Last TLE update: 2 days ago

TLE from 2 days ago
0 DELTA 1 DEB
1 21339U 75052BH  26167.33645821  .00000348  00000-0  13809-2 0  9999
2 21339  99.5762 305.0940 0372852 230.1935 188.8496 12.74008435629521
Epoch: 2026-06-16T08:04Z
TLE epoch observation values (Epoch: 2026-06-16T08:04:29.989Z)
Latitude
57.22804°
Longitude
-95.75962°
Altitude
1,660.72 km
Speed
6.917 km/s
True Right ascension
19h 19m 54s
True Declination
57° 05' 20"
Sunlit
Object was in daylight at epoch
Visualization orbit readout
Latitude
Unknown
Longitude
Unknown
Altitude
Unknown
Speed
Unknown
Apparent Right ascension
Unknown
Apparent Declination
Unknown
Sunlit
N/A
Visualization observer readout
Local Sidereal Time
23:03:31
Azimuth
Unknown
Elevation
Unknown
Doppler factor
Unknown
Orbital elements
Apogee altitude
1,651.678 km
Perigee altitude
1,074.415 km
Semi-major axis
7,741.184 km
Eccentricity
0.03729
Inclination
99.5762°
RAAN
305.094°
Arg. of periapsis
230.1935°
True anomaly
188.2213°
Mean anomaly
188.8496°
Eccentric anomaly
188.53263°
Mean motion
3.18663 °/min
Orbital period
112.97 mins
BSTAR
0.0013809
Loading maneuver chart data...
Computing Atmospheric mass density...

Documentation

Showing up to 5 results
|